Location: Piotrkow Trybunalski
(51.4000°N, 19.6830°E)
Time: 13:19:51
(UTC+02:00)

Explorer 7 - Pass Details

Date: 31 January 2023
Orbit: 478 x 656 km, 50.3° (Epoch: 01 April)

Event Time Altitude Azimuth Distance (km) Brightness Sun altitude
Rises 17:19:24 0° 281° (WNW) 2,870 11.7 -8.1°
Reaches altitude 10° 17:21:42 10° 277° (W) 1,991 10.9 -8.5°
Maximum altitude 17:26:09 51° 202° (SSW) 810 7.9 -9.1°
Drops below altitude 10° 17:30:46 10° 127° (SE) 2,060 9.4 -9.8°
Enters shadow 17:32:42 - 123° (ESE) 2,796 10.0 -10.1°
